Wetbulb
65.98 68.20 72.89 74.37 74.10 74.25 73.85 73.21 73.02 73.34 73.15 72.75 72.79 72.62 72.48 72.31 72.19 72.07 72.34 72.42 71.87 70.68 70.11 69.73 69.31 68.86 68.88 69.88 70.06 70.60 70.27 70.61 70.81 71.58 72.11 72.24 71.98 72.14 72.06 71.86 71.71 72.02 72.51
66.05 67.82 71.94 73.80 74.50 74.40 74.20 73.72 73.49 73.42 73.14 72.48 72.47 72.26 72.29 72.72 72.55 72.21 72.22 72.47 71.00 70.12 69.36 69.29 69.01 67.91 67.45 67.54 68.16 68.44 67.70 68.41 69.06 70.11 70.27 71.12 71.25 70.83 70.92 70.90 70.71 70.24 71.17
66.05 68.32 72.31 72.94 74.07 74.13 73.90 73.65 73.32 73.14 72.54 72.03 72.00 71.78 71.33 71.03 70.89 72.44 72.13 71.97 70.77 70.23 69.10 68.85 68.02 66.89 65.93 65.49 65.64 66.11 66.23 67.59 68.42 69.26 69.24 70.36 70.54 70.61 70.44 69.96 70.14 70.07 70.18
66.25 69.06 71.80 71.71 73.46 73.59 73.41 73.36 73.07 72.96 72.63 71.71 71.07 70.84 70.85 71.13 71.62 72.40 71.79 70.50 69.98 70.15 69.29 67.90 66.89 65.70 64.56 63.74 63.64 64.43 65.43 67.98 68.19 67.72 69.17 69.95 70.36 70.58 69.91 69.30 69.24 69.26 69.16
66.48 69.49 71.19 71.32 73.16 73.43 73.33 73.19 72.83 72.71 72.56 71.59 71.16 70.84 70.76 70.50 71.72 71.90 70.97 70.17 69.58 69.17 68.54 67.38 66.01 64.39 63.03 61.80 62.33 63.35 65.31 66.85 65.54 66.76 67.92 68.71 70.06 70.00 69.64 68.87 68.61 68.82 69.16
66.34 69.33 70.25 71.53 73.26 73.42 73.11 73.08 72.41 71.95 71.69 71.56 71.21 71.08 71.20 70.67 70.83 71.55 70.87 69.96 69.09 67.93 67.25 66.32 65.08 63.21 61.50 60.33 60.95 61.63 65.00 65.16 63.60 65.23 66.11 67.02 68.35 68.56 69.05 68.75 68.87 69.05 68.90
66.20 68.09 69.81 70.81 72.45 73.11 72.97 73.07 72.66 72.25 71.99 72.05 71.64 71.28 71.52 70.80 71.34 71.08 70.62 69.30 68.12 66.36 64.73 64.99 64.08 62.31 60.10 58.84 59.64 60.70 63.39 62.30 62.52 62.95 63.75 64.94 66.78 67.18 66.98 67.09 67.35 68.07 68.30
65.51 67.18 68.61 67.47 69.55 71.23 71.76 72.14 72.44 72.53 72.58 72.50 72.29 72.02 71.41 70.97 70.57 69.51 68.20 68.64 67.02 65.99 64.94 63.95 62.76 61.18 59.31 57.66 59.05 59.58 60.73 58.98 59.25 60.28 60.77 61.88 63.70 64.09 64.53 64.77 65.95 66.40 66.56
64.53 66.00 67.34 68.86 68.85 66.48 69.26 69.73 70.65 71.35 71.29 71.30 71.28 71.13 70.63 70.26 70.23 69.10 67.49 67.80 66.02 65.24 64.70 64.28 62.11 60.34 58.54 56.19 57.31 58.66 58.59 56.81 57.08 57.49 57.83 60.19 62.82 62.41 62.70 63.02 63.75 64.10 64.17
52.75 57.81 63.93 66.60 68.28 69.89 70.99 66.31 67.61 69.06 69.53 69.79 69.27 68.40 67.41 67.49 67.59 66.42 64.71 66.12 65.38 65.37 64.46 64.06 61.71 60.04 58.21 54.86 55.24 54.19 53.37 52.80 53.99 54.82 55.97 58.09 60.63 60.54 60.20 60.54 61.02 61.62 62.07
46.98 47.44 49.80 56.21 65.63 67.48 68.89 68.02 64.94 66.25 67.17 67.24 67.18 65.59 66.10 69.59 67.99 65.02 63.32 64.67 66.02 65.62 64.74 63.76 61.39 59.65 55.79 51.46 52.14 50.91 48.38 50.12 50.51 51.24 52.73 56.60 58.85 59.27 59.38 59.76 59.77 60.18 60.65
43.99 45.28 46.40 47.38 50.04 63.51 67.47 68.23 67.90 68.81 70.10 69.89 68.64 67.88 67.97 67.99 66.59 64.14 61.72 62.52 64.12 64.05 64.64 63.35 61.20 56.95 52.68 48.35 45.97 46.85 46.50 46.55 48.48 48.73 50.13 54.05 57.16 59.13 58.92 59.05 58.84 59.32 60.26
42.38 44.47 45.21 45.93 47.37 50.32 65.25 67.54 67.61 67.73 68.81 67.65 67.91 67.53 66.88 65.66 64.42 63.85 62.71 62.33 63.20 60.72 60.83 60.03 57.22 55.14 52.93 48.62 45.99 46.20 45.81 45.83 46.63 47.49 46.97 51.52 54.38 57.62 59.53 59.67 59.34 60.18 60.41
41.53 42.94 44.10 45.20 47.02 50.00 59.37 65.84 66.34 66.07 65.81 65.30 64.80 66.49 67.44 65.02 63.46 62.87 62.21 61.82 61.69 60.88 59.29 58.22 56.27 55.66 52.77 48.76 46.66 46.19 45.20 45.33 45.67 46.42 47.01 47.98 52.68 55.81 58.52 59.92 60.12 60.32 59.92
40.76 41.99 43.46 44.83 47.45 50.02 57.15 64.17 64.90 64.81 64.59 64.22 63.75 63.57 63.55 65.23 64.29 62.17 62.07 61.70 62.62 61.17 59.34 57.00 55.17 52.92 53.79 50.98 47.27 45.31 44.78 44.55 44.41 44.88 46.59 46.25 50.01 54.71 57.44 59.57 60.85 60.52 60.61
40.02 41.04 42.80 45.61 50.02 54.51 59.40 62.66 62.79 63.30 63.58 63.03 62.13 61.58 61.76 62.27 61.86 61.20 60.30 59.86 59.14 58.47 58.99 58.19 55.17 54.67 53.79 50.36 48.34 45.16 44.52 44.46 44.05 44.00 44.93 46.40 48.01 51.62 55.37 58.51 60.33 60.97 60.88
39.17 40.27 41.93 46.75 53.52 56.56 58.70 58.73 58.51 58.19 58.22 58.02 58.27 57.70 58.50 59.88 60.29 59.83 59.82 59.28 58.78 57.53 56.25 54.32 52.48 51.17 49.96 48.38 47.40 45.82 44.46 44.10 44.02 43.69 44.19 45.11 46.77 47.92 50.97 55.64 58.41 59.95 61.07
38.37 39.09 41.68 44.56 49.51 50.61 51.04 51.53 50.01 49.17 49.17 50.08 51.44 52.54 54.01 55.28 57.36 57.01 56.10 55.18 55.97 55.49 54.14 52.81 50.96 49.68 48.61 46.99 45.47 45.43 44.48 43.42 43.23 43.16 43.42 43.80 44.93 46.37 48.12 50.22 53.79 56.09 57.19
37.16 38.20 40.42 42.68 45.07 46.86 46.48 46.02 45.55 45.20 44.84 45.35 45.22 45.92 47.43 50.42 53.46 53.65 52.88 52.85 53.88 52.64 50.91 50.48 48.72 47.25 46.89 46.50 44.99 44.19 43.46 43.38 43.46 42.27 42.82 42.79 43.42 44.86 46.54 47.73 49.18 49.84 52.18
36.07 37.55 39.02 40.76 41.75 44.93 45.00 44.08 42.95 42.27 41.39 40.86 40.97 41.79 42.70 43.82 47.02 49.42 49.12 49.47 50.64 50.28 49.34 49.07 47.77 45.98 43.90 42.36 42.35 42.22 42.89 42.21 42.10 43.16 42.85 41.85 42.18 42.35 43.54 44.42 46.29 47.45 47.38
34.80 35.66 36.38 38.03 38.77 41.44 42.39 42.34 40.99 38.40 38.68 37.69 37.39 37.44 38.54 39.87 41.38 42.95 45.26 45.89 47.83 46.62 46.20 46.17 46.66 45.31 44.88 42.20 41.60 43.25 42.71 41.84 40.72 41.81 41.75 41.63 41.85 41.71 41.89 42.43 43.23 44.12 44.83
31.99 32.53 33.86 35.04 36.36 38.70 39.34 39.44 39.39 37.31 35.61 35.00 35.28 34.72 35.06 36.04 37.24 38.23 39.01 39.58 40.48 41.87 42.05 42.97 43.70 44.81 44.49 42.38 41.65 39.54 39.92 44.40 41.55 41.63 41.20 40.62 40.96 40.68 41.10 41.64 41.76 41.91 42.87
30.03 29.97 31.71 32.69 33.75 34.63 36.33 37.81 36.54 35.37 34.50 33.36 32.83 32.82 32.80 33.79 34.30 35.19 35.01 35.85 36.15 37.28 37.19 38.61 40.54 40.94 40.79 42.72 41.96 41.62 40.59 38.52 38.34 44.33 41.88 40.76 40.55 40.71 40.98 40.64 40.49 40.69 41.34
29.25 30.04 30.68 31.28 32.27 32.59 34.10 33.10 32.51 31.49 29.85 30.49 30.70 31.48 31.73 31.92 32.16 32.76 33.06 33.21 33.36 33.90 33.18 34.88 35.86 37.58 39.71 37.82 41.26 40.79 40.09 38.63 36.53 36.54 40.60 42.55 40.78 40.10 41.19 41.69 41.02 41.05 40.88
29.49 29.15 29.59 30.38 30.33 30.50 31.00 32.07 31.09 29.55 29.93 30.18 30.21 30.32 30.25 30.59 30.71 30.82 31.12 31.28 31.26 31.74 31.70 31.66 32.30 32.23 33.84 33.95 35.47 37.32 38.54 38.91 37.90 34.86 34.96 37.20 41.01 41.98 41.81 41.15 40.95 40.68 40.94
29.22 29.15 29.33 29.38 28.76 29.38 29.72 29.50 29.57 29.09 28.65 28.83 28.53 28.62 28.72 29.15 29.33 29.22 29.58 29.63 29.79 29.83 29.55 30.02 30.28 30.46 30.50 31.16 31.54 32.37 33.22 34.11 34.20 34.70 34.08 35.06 35.23 38.76 40.37 40.96 40.50 40.64 40.94
MSLP
1019.10 1018.87 1018.85 1019.06 1019.37 1019.62 1019.92 1020.21 1020.43 1020.63 1020.79 1020.89 1020.98 1021.14 1021.24 1021.29 1021.33 1021.56 1021.55 1021.55 1021.60 1021.71 1021.87 1022.10 1022.16 1022.16 1022.24 1022.08 1021.93 1021.79 1021.83 1021.83 1021.67 1021.53 1021.40 1021.29 1021.37 1021.40 1021.42 1021.43 1021.10 1020.97 1021.16
1018.53 1018.93 1019.04 1019.11 1019.36 1019.70 1020.04 1020.31 1020.56 1020.77 1020.91 1021.08 1021.25 1021.35 1021.48 1021.56 1021.69 1021.80 1021.93 1021.93 1022.02 1022.14 1022.24 1022.36 1022.47 1022.46 1022.59 1022.48 1022.35 1022.35 1022.32 1022.22 1022.11 1022.03 1021.85 1021.76 1021.81 1021.81 1021.88 1021.76 1021.60 1021.48 1021.52
1018.54 1018.83 1019.14 1019.32 1019.52 1019.80 1020.11 1020.49 1020.76 1020.94 1021.09 1021.25 1021.43 1021.56 1021.70 1021.77 1021.89 1021.88 1022.12 1022.26 1022.30 1022.34 1022.54 1022.72 1022.71 1022.80 1022.82 1022.78 1022.71 1022.67 1022.60 1022.46 1022.40 1022.44 1022.27 1022.03 1021.93 1022.07 1022.09 1022.03 1022.03 1021.99 1021.89
1018.69 1018.97 1019.18 1019.49 1019.74 1020.00 1020.31 1020.71 1020.94 1021.11 1021.25 1021.40 1021.55 1021.73 1021.87 1022.03 1022.11 1022.13 1022.36 1022.50 1022.49 1022.54 1022.74 1022.95 1023.05 1023.07 1022.97 1022.93 1022.88 1022.76 1022.81 1022.79 1022.71 1022.66 1022.41 1022.40 1022.26 1022.29 1022.25 1022.22 1022.30 1022.28 1022.27
1018.67 1018.97 1019.24 1019.53 1019.76 1020.07 1020.42 1020.76 1020.98 1021.17 1021.35 1021.54 1021.75 1021.92 1022.08 1022.23 1022.26 1022.36 1022.55 1022.54 1022.66 1022.91 1023.10 1023.21 1023.33 1023.35 1023.29 1023.21 1023.10 1022.95 1022.90 1022.99 1023.08 1022.90 1022.78 1022.66 1022.51 1022.53 1022.54 1022.52 1022.51 1022.51 1022.52
1018.91 1019.02 1019.17 1019.43 1019.72 1019.99 1020.23 1020.61 1020.97 1021.24 1021.41 1021.58 1021.79 1021.98 1022.15 1022.27 1022.40 1022.45 1022.58 1022.76 1022.81 1023.06 1023.44 1023.56 1023.67 1023.72 1023.70 1023.56 1023.40 1023.41 1023.26 1023.31 1023.35 1023.25 1023.13 1023.04 1022.87 1022.88 1022.81 1022.85 1022.80 1022.66 1022.59
1019.38 1019.55 1019.69 1019.75 1019.77 1019.89 1020.13 1020.42 1020.85 1021.17 1021.42 1021.62 1021.82 1022.01 1022.16 1022.34 1022.46 1022.60 1022.69 1022.72 1022.99 1023.30 1023.66 1023.72 1023.96 1023.99 1023.98 1023.92 1023.74 1023.66 1023.68 1023.69 1023.56 1023.59 1023.58 1023.46 1023.27 1023.21 1023.13 1023.14 1023.06 1023.07 1022.84
1019.53 1019.72 1019.90 1020.07 1020.17 1020.26 1020.29 1020.43 1020.76 1021.09 1021.32 1021.48 1021.68 1021.92 1022.21 1022.30 1022.49 1022.72 1022.86 1022.97 1023.24 1023.43 1023.69 1023.88 1024.27 1024.30 1024.30 1024.29 1024.07 1024.03 1024.10 1024.17 1024.03 1023.96 1023.96 1023.89 1023.70 1023.52 1023.48 1023.46 1023.35 1023.23 1023.20
1019.93 1020.00 1020.05 1020.07 1020.25 1020.40 1020.40 1020.47 1020.71 1021.00 1021.29 1021.50 1021.68 1021.91 1022.14 1022.35 1022.55 1022.80 1023.04 1023.18 1023.36 1023.58 1023.86 1024.14 1024.36 1024.55 1024.60 1024.63 1024.53 1024.45 1024.41 1024.41 1024.25 1024.36 1024.37 1024.24 1024.04 1023.76 1023.72 1023.62 1023.58 1023.59 1023.61
1020.62 1020.57 1020.40 1020.31 1020.24 1020.21 1020.26 1020.47 1020.66 1020.94 1021.26 1021.49 1021.66 1021.85 1022.08 1022.30 1022.59 1022.84 1023.18 1023.41 1023.58 1023.75 1024.03 1024.27 1024.56 1024.81 1024.99 1024.97 1024.84 1024.84 1024.85 1024.82 1024.72 1024.75 1024.61 1024.51 1024.31 1024.03 1023.98 1023.91 1023.83 1023.77 1023.75
1021.30 1021.38 1021.20 1020.87 1020.34 1020.26 1020.30 1020.46 1020.70 1020.81 1021.05 1021.28 1021.41 1021.60 1021.85 1022.11 1022.42 1022.87 1023.22 1023.44 1023.70 1023.85 1024.06 1024.35 1024.70 1025.02 1025.29 1025.37 1025.32 1025.21 1025.08 1025.04 1025.00 1025.06 1025.04 1024.96 1024.59 1024.21 1024.03 1024.06 1023.96 1023.91 1023.80
1022.15 1021.84 1021.69 1021.44 1021.09 1020.47 1020.21 1020.35 1020.62 1020.85 1020.93 1021.04 1021.16 1021.38 1021.73 1021.98 1022.44 1022.96 1023.28 1023.59 1023.75 1023.90 1024.01 1024.33 1024.67 1025.09 1025.27 1025.39 1025.45 1025.42 1025.38 1025.35 1025.27 1025.28 1025.24 1025.06 1024.72 1024.32 1024.09 1023.94 1023.96 1023.86 1023.87
1023.06 1022.41 1022.00 1021.68 1021.34 1020.96 1020.34 1020.32 1020.65 1020.88 1021.03 1021.15 1021.20 1021.44 1021.66 1022.13 1022.55 1022.87 1023.28 1023.54 1023.71 1023.93 1024.18 1024.33 1024.60 1025.00 1025.23 1025.39 1025.48 1025.54 1025.51 1025.48 1025.47 1025.45 1025.37 1025.14 1024.82 1024.53 1024.15 1023.88 1023.83 1023.86 1023.88
1023.18 1022.70 1022.10 1021.60 1021.19 1020.76 1020.47 1020.47 1020.72 1021.12 1021.31 1021.52 1021.69 1021.74 1021.84 1022.14 1022.57 1022.82 1023.07 1023.34 1023.54 1023.82 1024.09 1024.31 1024.56 1024.68 1025.14 1025.46 1025.60 1025.63 1025.66 1025.64 1025.60 1025.52 1025.35 1025.30 1025.03 1024.64 1024.27 1023.92 1023.65 1023.68 1023.72
1023.60 1022.94 1022.26 1021.61 1021.03 1020.69 1020.24 1020.18 1020.54 1020.93 1021.31 1021.72 1022.03 1022.21 1022.34 1022.28 1022.47 1022.80 1022.95 1023.20 1023.40 1023.69 1023.94 1024.20 1024.37 1024.59 1024.65 1025.12 1025.44 1025.59 1025.62 1025.69 1025.71 1025.63 1025.52 1025.43 1025.09 1024.73 1024.44 1024.16 1023.75 1023.53 1023.53
1024.15 1023.44 1022.68 1021.81 1021.05 1020.44 1020.25 1020.44 1021.01 1021.37 1021.67 1021.88 1022.13 1022.42 1022.55 1022.72 1022.96 1023.14 1023.34 1023.52 1023.72 1023.86 1023.94 1024.08 1024.36 1024.47 1024.53 1024.77 1025.03 1025.39 1025.50 1025.51 1025.46 1025.50 1025.41 1025.27 1025.24 1025.05 1024.76 1024.40 1023.96 1023.54 1023.46
1024.76 1024.13 1023.16 1022.20 1021.17 1020.64 1020.78 1021.20 1021.61 1022.17 1022.48 1022.92 1023.30 1023.27 1022.92 1022.75 1022.86 1023.20 1023.54 1023.88 1024.12 1024.20 1024.40 1024.53 1024.72 1024.89 1025.11 1025.24 1025.34 1025.25 1025.40 1025.41 1025.37 1025.32 1025.18 1025.08 1024.96 1024.94 1024.88 1024.62 1024.40 1024.09 1023.85
1024.92 1024.31 1023.76 1023.11 1022.13 1021.72 1021.78 1022.08 1022.52 1023.04 1023.47 1023.87 1023.99 1024.01 1024.01 1023.86 1023.61 1023.65 1023.72 1024.04 1024.24 1024.41 1024.63 1024.96 1025.35 1025.66 1025.74 1025.68 1025.64 1025.63 1025.59 1025.58 1025.44 1025.35 1025.35 1025.25 1025.06 1024.80 1024.62 1024.60 1024.56 1024.44 1024.21
1025.67 1024.94 1024.14 1023.72 1023.36 1022.97 1023.03 1023.52 1023.74 1024.17 1024.53 1024.92 1025.08 1025.14 1024.95 1024.78 1024.67 1024.66 1024.78 1024.79 1024.43 1024.60 1024.91 1025.06 1025.46 1025.67 1025.94 1026.08 1025.98 1025.64 1025.46 1025.35 1025.33 1025.33 1025.15 1025.19 1025.19 1025.08 1024.84 1024.61 1024.44 1024.39 1024.32
1026.04 1025.79 1025.39 1024.72 1024.07 1023.87 1023.80 1023.91 1024.65 1025.18 1025.86 1026.23 1026.31 1026.26 1026.17 1026.06 1025.61 1025.27 1025.45 1025.51 1025.28 1025.18 1025.26 1025.40 1025.63 1025.74 1025.84 1025.85 1025.73 1025.43 1025.16 1025.13 1024.84 1024.78 1025.01 1025.25 1025.36 1025.30 1025.17 1025.02 1024.82 1024.41 1024.27
1026.49 1025.92 1025.78 1025.77 1025.65 1024.85 1024.67 1024.73 1025.13 1026.07 1026.80 1027.17 1027.60 1027.77 1027.45 1027.37 1026.96 1026.60 1026.41 1026.24 1026.13 1026.11 1026.31 1026.23 1026.11 1026.16 1026.28 1025.81 1025.48 1024.92 1024.66 1024.60 1024.73 1024.85 1024.92 1024.99 1024.92 1025.07 1025.10 1025.02 1024.83 1024.62 1024.38
1027.79 1027.58 1026.93 1026.48 1026.46 1026.08 1025.96 1026.39 1026.75 1027.28 1027.91 1028.16 1028.32 1028.30 1028.55 1028.48 1028.25 1028.06 1027.99 1027.92 1027.73 1027.28 1027.14 1027.00 1026.87 1026.75 1026.69 1026.63 1026.30 1025.87 1025.26 1024.64 1024.43 1024.34 1024.56 1024.88 1024.90 1025.07 1024.88 1024.76 1024.73 1024.62 1024.37
1028.08 1028.55 1027.94 1027.50 1027.20 1026.97 1026.87 1026.92 1027.32 1027.67 1028.31 1028.66 1029.03 1029.19 1029.48 1029.31 1029.26 1029.09 1028.78 1028.58 1028.77 1028.76 1028.52 1028.38 1028.00 1027.75 1027.43 1027.21 1027.21 1027.03 1026.21 1025.79 1025.44 1024.23 1024.27 1024.52 1024.57 1024.65 1024.75 1024.76 1024.57 1024.25 1024.00
1028.18 1027.59 1027.70 1027.75 1027.67 1027.82 1027.80 1027.75 1027.88 1028.37 1028.81 1029.97 1030.15 1030.47 1030.41 1030.37 1030.34 1030.01 1030.12 1029.88 1029.45 1029.39 1029.47 1029.30 1029.14 1028.72 1028.39 1028.44 1027.79 1027.85 1027.90 1027.70 1026.72 1025.22 1024.62 1024.48 1024.64 1024.41 1024.21 1024.17 1024.16 1023.91 1023.68
1029.35 1028.98 1029.04 1028.98 1028.84 1028.83 1028.61 1028.72 1028.97 1029.56 1030.20 1030.60 1030.78 1030.81 1031.03 1031.11 1031.10 1030.91 1030.93 1030.71 1030.53 1030.38 1030.66 1030.38 1029.98 1029.62 1029.47 1029.38 1029.22 1028.87 1028.23 1027.83 1027.81 1027.51 1025.60 1025.06 1024.76 1024.58 1023.99 1023.69 1023.64 1023.59 1023.16
1030.23 1029.50 1029.37 1029.56 1029.83 1029.82 1029.76 1029.83 1029.91 1030.03 1030.39 1030.55 1030.94 1031.13 1031.48 1031.73 1031.81 1031.71 1031.47 1031.38 1031.36 1031.28 1031.18 1031.10 1030.95 1030.73 1030.54 1030.19 1029.94 1029.80 1029.52 1029.24 1028.52 1028.28 1027.11 1026.00 1025.01 1024.03 1023.99 1023.57 1023.13 1022.84 1022.82
Wind_Speed
6 8 9 12 13 13 12 11 11 10 11 11 12 11 11 10 10 8 8 10 12 12 13 12 12 12 12 12 11 10 13 13 12 13 14 15 14 15 16 14 12 13 14
3 10 9 11 10 12 11 10 10 10 10 11 11 11 10 10 9 7 8 12 12 12 11 11 11 12 11 11 11 11 11 10 10 10 11 11 11 12 13 14 12 12 13
6 11 10 10 10 10 11 10 9 9 10 11 11 10 9 8 7 7 11 11 10 11 10 10 10 10 10 10 9 9 9 9 9 9 8 6 7 10 12 12 12 13 13
7 10 9 9 9 10 10 9 8 8 9 10 9 9 9 8 7 10 12 11 10 11 9 9 10 10 10 10 8 9 8 9 9 8 6 5 4 9 11 10 10 11 12
8 9 8 9 9 10 10 9 8 7 7 8 8 8 7 7 7 11 9 10 11 10 9 9 10 10 10 9 8 8 8 9 9 6 6 6 6 10 10 9 7 8 10
5 7 9 11 10 10 12 12 9 8 7 7 7 6 7 7 7 10 8 8 10 10 9 8 9 10 11 10 9 8 7 8 7 6 6 7 6 9 9 8 10 8 11
3 3 4 8 9 10 11 13 11 9 8 8 7 7 8 7 7 6 5 8 8 6 6 6 8 9 11 10 9 8 7 8 5 5 5 5 6 7 7 7 7 9 8
3 3 2 4 4 5 9 10 11 10 9 9 9 7 9 9 8 5 4 7 5 5 6 4 6 8 9 9 9 8 8 7 5 5 5 4 7 6 6 6 6 7 8
6 3 0 3 5 5 6 7 9 9 7 6 5 5 6 7 8 5 4 5 3 3 5 5 6 6 7 8 10 9 8 8 5 4 4 3 7 6 6 6 5 5 4
11 9 6 3 5 6 6 6 7 8 8 8 6 6 7 7 5 6 5 4 3 2 5 6 6 6 7 8 9 9 8 7 5 4 3 4 8 5 5 5 4 3 3
11 11 10 9 5 4 4 5 6 7 8 8 8 8 6 4 7 7 6 5 3 4 5 5 5 8 7 8 9 8 6 3 4 3 3 9 9 7 5 5 5 5 4
13 12 10 9 8 7 3 4 4 4 5 6 4 3 1 3 3 3 4 4 4 4 7 5 7 7 5 3 3 5 3 3 3 3 3 9 8 8 6 5 5 5 4
8 8 10 9 7 6 4 2 1 1 3 2 3 4 4 3 3 3 2 2 3 3 2 4 5 2 3 2 2 2 3 3 2 2 3 8 9 8 9 7 5 4 3
10 10 11 10 7 4 3 1 2 0 1 0 3 2 2 2 3 3 3 4 3 3 3 3 2 4 3 2 3 3 4 3 2 3 4 8 9 9 9 9 6 5 5
10 11 11 10 9 6 4 3 3 3 2 2 2 4 3 3 2 2 3 3 4 4 3 3 3 3 4 2 0 1 2 3 4 3 3 8 9 10 10 10 10 6 5
11 13 13 11 10 3 5 4 4 4 5 5 6 5 5 3 3 2 1 1 2 1 2 3 2 3 2 3 2 1 3 3 3 3 3 4 9 11 11 11 10 9 7
10 12 12 11 10 10 10 9 9 8 8 8 7 10 10 8 4 3 3 3 4 3 3 2 1 1 1 1 4 1 2 4 4 4 3 3 4 8 10 11 11 11 10
8 10 11 9 10 13 12 10 9 9 8 8 8 8 12 11 10 8 6 6 4 3 3 3 3 3 3 3 3 4 4 4 5 5 5 4 4 4 5 7 10 11 12
10 9 9 10 12 12 13 11 12 13 11 9 9 9 11 12 10 9 7 6 5 5 5 3 3 2 2 4 5 4 3 4 5 5 7 6 6 6 5 7 7 8 10
9 11 11 9 10 9 9 10 9 11 11 10 10 11 14 11 12 9 8 8 7 6 6 4 4 1 2 1 3 4 4 4 4 4 6 5 6 7 6 7 6 6 9
11 11 12 11 11 6 5 6 8 9 8 10 10 15 15 14 15 13 9 10 9 9 8 8 3 4 2 3 2 2 2 2 3 4 4 5 6 6 6 6 5 4 5
11 12 12 12 11 10 5 5 5 7 9 9 9 13 15 15 15 13 12 11 13 9 12 12 11 3 3 6 4 1 3 2 3 1 2 3 5 4 6 7 7 8 7
11 11 10 10 10 10 8 7 6 6 6 7 9 10 12 14 14 13 13 11 12 10 9 11 11 12 6 5 8 5 4 3 4 2 2 1 4 4 5 6 7 7 8
6 5 7 8 10 10 9 11 13 9 10 6 8 8 9 13 14 13 13 12 12 9 11 9 10 10 8 8 3 7 4 4 4 6 1 5 4 6 6 6 6 8 8
5 6 7 9 11 10 10 10 10 12 8 7 7 10 10 10 12 12 12 12 11 9 10 11 11 11 9 7 6 5 4 5 2 4 9 6 8 8 7 7 7 7 8
4 5 7 9 10 10 10 10 11 12 9 8 8 8 7 7 8 11 11 10 10 10 10 9 9 11 9 7 6 6 5 4 6 5 8 12 12 7 6 7 7 7 7
Wind_Direction
225 192 184 157 160 146 142 135 125 119 116 113 112 111 107 104 100 99 96 86 79 68 66 64 62 58 54 57 59 59 54 53 54 54 54 61 54 52 53 49 48 51 50
177 184 185 159 161 146 146 137 131 125 124 122 118 114 110 101 107 105 102 85 79 71 60 55 59 63 59 57 55 44 41 42 43 51 55 64 71 70 64 54 53 54 42
174 172 178 168 165 156 144 139 138 135 133 129 126 121 116 107 102 114 110 95 82 78 59 54 52 54 58 59 59 56 49 48 52 55 52 68 75 83 73 66 58 55 52
161 171 174 171 166 151 144 142 145 144 140 134 128 124 120 116 112 114 105 92 76 66 61 51 51 47 45 42 47 57 55 59 65 65 64 59 73 88 77 70 68 67 58
160 169 173 173 172 163 153 153 155 150 145 141 136 129 124 119 107 113 109 104 83 59 54 42 38 36 34 32 37 46 66 65 61 67 70 63 66 68 70 67 67 86 82
170 171 173 177 177 176 171 162 165 165 163 156 151 147 137 127 130 140 132 108 84 68 43 34 32 29 26 22 25 35 66 74 68 62 54 50 57 56 57 58 52 72 79
153 186 198 195 187 182 181 166 167 175 177 174 174 180 156 137 138 143 126 76 66 68 45 28 28 29 25 22 21 38 58 60 61 58 48 39 40 41 45 41 42 43 68
128 154 201 228 224 212 200 174 171 180 189 192 186 191 177 154 146 135 87 100 95 82 90 50 44 36 28 24 28 38 53 54 48 46 36 20 6 22 26 26 32 42 49
44 62 80 208 223 248 233 194 185 187 201 211 209 205 193 169 164 150 98 80 74 51 68 83 72 47 41 34 30 39 51 54 53 36 18 14 345 29 28 27 24 24 21
22 16 357 311 233 223 223 229 200 189 195 206 208 207 205 186 165 138 105 86 72 51 75 78 67 48 47 38 40 43 37 38 37 22 14 3 357 8 10 15 11 359 346
11 8 5 352 296 245 223 207 214 214 198 203 208 210 208 169 163 153 159 160 106 93 103 97 80 77 63 39 32 32 41 32 19 15 1 347 345 342 347 353 350 343 340
357 352 358 351 340 308 224 195 203 218 225 223 200 193 233 162 118 124 128 128 106 128 126 114 106 90 60 40 13 17 24 18 16 0 347 348 345 342 329 331 329 329 336
329 341 348 342 333 314 285 195 171 182 242 315 210 212 150 123 142 153 151 162 147 144 117 115 127 99 64 41 26 12 3 2 352 339 333 345 345 335 330 323 322 320 324
346 340 336 338 327 312 259 253 140 138 307 318 6 3 203 144 154 173 172 173 166 168 162 155 157 137 108 63 18 348 347 341 334 327 325 337 338 336 332 320 310 304 307
352 340 340 333 335 318 216 141 122 116 90 27 40 43 25 333 224 144 203 177 191 180 181 179 177 173 161 164 127 326 327 330 328 324 318 327 334 336 332 325 306 295 290
347 345 340 345 349 8 122 109 79 62 52 51 53 39 34 349 350 329 333 196 225 207 207 217 205 223 206 173 191 265 301 296 291 305 314 319 329 332 332 329 311 297 291
346 337 355 3 16 52 65 66 64 60 62 54 43 37 41 46 61 57 22 5 355 351 334 357 27 23 336 330 307 262 288 290 298 298 294 294 314 323 328 327 331 333 330
2 3 357 13 41 60 69 72 71 64 65 55 49 41 34 33 46 56 67 51 28 34 33 31 26 352 342 345 335 318 311 301 291 285 291 292 283 280 296 310 320 325 327
0 7 22 26 41 63 67 64 65 61 53 47 45 36 38 42 44 57 48 39 50 61 58 57 71 81 31 2 329 305 287 282 290 294 280 283 288 292 297 289 295 309 318
19 20 20 31 39 62 75 80 72 62 53 45 37 37 34 30 34 48 45 37 38 51 50 46 72 71 93 233 277 297 290 267 261 272 303 306 304 301 301 306 311 306 307
33 41 34 34 13 32 55 74 70 71 57 51 43 35 37 32 33 38 39 39 38 44 38 23 12 37 45 340 306 333 276 282 324 325 322 309 294 298 301 295 284 284 296
28 23 35 42 36 44 44 61 66 79 65 67 57 53 44 43 41 44 41 36 32 38 36 29 26 1 23 7 358 262 348 322 32 332 358 0 336 322 300 292 295 298 292
42 16 32 42 53 53 63 94 94 84 76 61 48 52 41 46 45 45 50 54 48 41 40 33 25 28 11 11 2 346 335 325 325 316 278 314 338 334 323 315 301 283 279
56 71 67 57 62 58 65 78 82 89 93 77 71 63 52 45 45 46 44 45 50 51 44 39 35 37 33 25 3 12 345 327 328 315 273 321 334 321 300 296 294 291 284
42 46 40 56 59 56 70 85 92 91 90 90 75 74 61 52 48 44 44 44 44 43 39 37 36 39 41 40 25 348 355 327 337 309 309 324 305 302 293 282 287 283 278
50 68 66 72 60 54 69 78 96 106 108 97 82 76 61 54 45 39 42 43 44 40 34 31 31 33 28 35 25 20 16 349 329 317 304 311 302 307 301 291 282 277 279